Flag for U.S.A. Weather past 2 weeks in Lowell, Massachusetts, U.S.A.

Now
74 °F

Overcast.


Feels Like: 75 °F
Forecast: 55 / 73 °F
Wind: 3 mph from North

Location: Hanscom Field

Current Time: Sep 4, 2015 at 12:27:56 AM

Latest Report: Sep 3, 2015 at 10:56 PM


Visibility: 10 mi

Pressure: 29.95 "Hg

Humidity: 74%

Dew point: 65 °F

Location of LowellLocation

Historic Weather in Lowell — Graph

°F

Lowell temperature yesterday

Maximum temperature yesterday: 87 °F (at 1:56 PM)
Minimum temperature yesterday: 62 °F (at 4:56 AM)
Average temperature yesterday: 75 °F

Past Weeks' High & Low Weather Summary

 TemperatureHumidityPressure
High90 °F (Sep 2, 3:56 PM)97% (Aug 22, 3:56 AM)30.22 "Hg (Aug 22, 3:56 AM)
Low52 °F (Aug 28, 5:56 AM)31% (Sep 2, 3:56 PM)29.85 "Hg (Aug 25, 6:56 PM)
Average72 °F74%30.01 "Hg
* Reported Aug 19 10:56 PM — Sep 3 10:56 PM, Lowell, Weather by CustomWeather, © 2015

Note: Actual official high and low records may vary slightly from our data, if they occured in-between our weather recording intervals... More about our weather records

Advertising

Lowell weather history for previous 24 hours

 ConditionsComfort  
Time TempWeatherWind HumidityBarometerVisibility
10:56 PM
Thu, Sep 3
74 °FOvercast.3 mph74%29.95 "Hg10 mi
9:56 PM75 °FPassing clouds.No wind71%29.92 "Hg10 mi
8:56 PM77 °FPartly cloudy.5 mph64%29.91 "Hg10 mi
7:56 PM78 °FPassing clouds.7 mph62%29.88 "Hg10 mi
6:56 PM80 °FSunny.5 mph58%29.88 "Hg10 mi
5:56 PM82 °FSunny.8 mph55%29.87 "Hg10 mi
4:56 PM84 °FPartly sunny.N/A51%29.85 "Hg10 mi
3:56 PM85 °FSunny.5 mph51%29.85 "Hg10 mi
2:56 PM87 °FPartly sunny.7 mph46%29.85 "Hg10 mi
1:56 PM87 °FBroken clouds.3 mph48%29.86 "Hg10 mi
12:56 PM86 °FScattered clouds.6 mph48%29.88 "Hg10 mi
11:56 AM86 °FSunny.8 mph48%29.88 "Hg10 mi
10:56 AM84 °FSunny.8 mph51%29.89 "Hg10 mi
9:56 AM79 °FScattered clouds.5 mph65%29.89 "Hg5 mi
8:56 AM74 °FSunny.6 mph74%29.89 "Hg10 mi
7:56 AM67 °FFog.No wind90%29.88 "Hg6 mi
6:56 AM63 °FFog.No wind90%29.87 "Hg5 mi
5:56 AM62 °FClear.No wind90%29.85 "Hg7 mi
4:56 AM62 °FClear.No wind93%29.86 "Hg7 mi
3:56 AM63 °FFog.No wind93%29.85 "Hg6 mi
2:56 AM64 °FClear.No wind90%29.86 "Hg8 mi
1:56 AM65 °FClear.No wind91%29.87 "Hg10 mi
12:56 AM65 °FClear.No wind87%29.88 "Hg10 mi
Weather by CustomWeather, © 2015

See weather overviewHow to use our weather pages